sat.trackr.live / text

‹ back to catalog

ONEWEB-0162

NORAD 48056 · 2021-025Q

PAYLOAD ACTIVE UNKNOWN

§ Identity

Operator
Country
UK
Launch date
2021-03-25
Launch site
VOSTO
Launch vehicle
Mass (kg)
RCS (m²)

Purposes: comms

External: N2YO · Heavens-Above · Gunter

§ Orbital elements

Epoch: 2026-05-25T01:09:11.436192Z

Period
109.63 min
Inclination
87.8945°
Eccentricity
0.0001930
Mean motion
13.13467888 rev/d
Perigee alt
1,208.3 km
Apogee alt
1,211.2 km
Semi-major
7,587.9 km
B*
-2.1366e-4
RAAN
324.8331°
Arg perigee
94.5706°
Mean anomaly
265.5644°
Rev number
25,050

§ Raw data

ONEWEB-01621 48056U 21025Q   26145.04804903 -.00000065  00000+0 -21366-3 0  99922 48056  87.8945 324.8331 0001930  94.5706 265.5644 13.13467888250507

JSON: /api/v1/satellites/48056 · /tle

For live sub-satellite position, see the globe view (requires WebGL).

§ Visibility from observer

Set your observer location to see the next 7 days of passes ≥ 10°. The values pass through the URL so the page stays shareable.

No JS? Fill the form by hand. The geolocation button needs JavaScript.